Regional Weather Roundup
Issued by NWS

Home | Current Version | Previous Version | Text Only | Print | Product List | Glossary On
Versions: 1 2 3 4 5 6 7 8 9 10 11 12 13 14 15 16 17 18 19 20 21 22 23 24 25 26 27 28 29 30 31 32 33 34 35 36 37 38 39 40 41 42 43 44 45 46 47 48 49 50
000
ASUS42 KKEY 041510
RWRKEY

FLORIDA REGIONAL WEATHER ROUNDUP FOR THE FLORIDA KEYS
NATIONAL WEATHER SERVICE KEY WEST FLORIDA
1100 AM EDT TUE AUG 04 2015

...SOUTH FLORIDA AND THE KEYS...

CITY           SKY/WX    TMP DP  RH WIND       PRES   REMARKS
FORT MYERS     SUNNY     87  67  51 S6        30.07R HX  90
SW REGIONAL AP SUNNY     87  67  51 E5        30.08R HX  90
NAPLES         SUNNY     89  71  55 SE6       30.07R HX  95
MIAMI          PTSUNNY   89  74  60 SE7       30.07R HX  98
WEST KENDALL   MOSUNNY   89  75  63 VRB6      30.07R HX  99
HOMESTEAD      SUNNY     88  72  58 E6        30.06R HX  95
MARATHON       MOSUNNY   90  78  68 VRB6      30.06R HX 104
BOCA CHICA NAS MOSUNNY   88  75  65 E6        30.06R HX  97
KEY WEST INTL  SUNNY     87  76  69 E8        30.06R HX  97

...INTERNATIONAL WEATHER...

CITY           SKY/WX    TMP DP  RH WIND       PRES   REMARKS
NASSAU BAHAMAS PTSUNNY   88  81  79 S8        30.07R HX 105
CANCUN MEXICO  MOSUNNY   86  77  74 E6        30.02R HX  97
COZUMEL MEXICO MOSUNNY   84  75  74 E7        30.00R HX  92

ADJACENT COASTAL WATERS...

STATION/POSITION TIME  SKY/WX   TEMP    WIND        PRES    WAVE
                                AIR SEA DIR/SP/G            HT/PER
                 (UTC)          (F)     (DEG/KT/KT) (MB)    (FT/S)
PULASKI SHOAL LI 1400            85     130/  4/  4 1017.6R
SAND KEY         1450            85     110/  7/  8 1017.8R
SOMBRERO KEY     1500            86      80/  5/  6 1018.7R
LONG KEY         1400            85 87  150/  4/  5 1018.4R
MOLASSES REEF    1500            85 87  130/  7/  7 1018.3R
FOWEY ROCKS      NOT AVBL

$$


USA.gov is the U.S. government's official web portal to all federal, state and local government web resources and services.